Weather in Bad Reichenhall

Germany     47°43′15″N   12°52′26″E
В апреле 2022 года жителям России запретили посещать сайт meteo.paraplan.net по решению Генеральной прокуратуры. Аудитория сайта уменьшилась в 10 раз. Владельцы сайта не видят смысла в поддержке погодного сервера в таких условиях. Сайт будет закрыт в октябре.
temp.,
°C
wind,
m/s
gust,
m/s
humid.,
%
clouds,
%
prec.,
mm/h
press.,
hPa
HPBL,
m
4 october, tue
tue423:00+6ssw119328 0.0 102719
02:00+6s21925 0.0 102618
05:00+4ssw229248 0.0 102628
08:00+5s228450 0.0 102533
11:00+12ne1156100 0.0 1024470
14:00+14nne1151100 0.0 1023626
17:00+14ne11645 0.0 1023289
20:00+8s22894 0.0 102421
5 october, wed
wed523:00+8ssw22720 0.0 102528
02:00+8ssw226410 0.0 102526
05:00+8ssw325645 0.0 102431
08:00+9ssw2252100 0.0 102427
11:00+17w0143100 0.0 1022194
14:00+20nne2144100 0.0 1021452
17:00+16nne1173100 0.0 102259
20:00+11ssw228076 0.0 102416
6 october, thu
thu623:00+12ssw3270100 0.0 102529
02:00+11ssw326875 0.0 102731
05:00+11sw326022 0.0 102828
08:00+11sw22697 0.0 102931
11:00+17n225618 0.0 1030609
14:00+18nne226079 0.0 10301096
17:00+16ne2277100 0.0 1029550
20:00+11sse1196100 0.0 103110
7 october, fri
fri723:00+10s11965 0.0 103111
02:00+9s11966 0.0 102913
05:00+9s11955 0.0 102814
08:00+9ssw228824 0.0 102722
11:00+16n11599 0.0 1025423
14:00+18nne2157100 0.0 1022689
17:00+16nne1175100 0.0 1021311
20:00+11ssw2195100 0.0 102316
8 october, sat
sat823:00+11ssw22935 0.0 102325
02:00+10ssw22915 0.0 102222
05:00+10ssw22925 0.0 102225
08:00+10sw228974 0.0 102231
11:00+15nnw1272100 0.0 1023581
14:00+14nnw2288100 1.0 1022330
17:00+12nnw1298100 2.0 1023227
20:00+11nnw1299100 2.4 1025133